Time,TemperatureF,DewpointF,PressureIn,WindDirection,WindDirectionDegrees,WindSpeedMPH,WindSpeedGustMPH,Humidity,HourlyPrecipIn,Conditions,Clouds,dailyrainin,SoftwareType,DateUTC
2013-03-09 00:00:00,40.3,3.5,30.02,NNE,24,0.0,0.0,21,0.00,,CLR,0.00,VWS V14.01,2013-03-09 05:00:00,
2013-03-09 00:01:00,40.3,3.5,30.02,NNE,24,0.0,0.0,21,0.00,,CLR,0.00,VWS V14.01,2013-03-09 05:01:00,
2013-03-09 00:06:00,39.4,2.7,30.02,NNE,24,0.0,0.0,21,0.00,,CLR,0.00,VWS V14.01,2013-03-09 05:06:00,
2013-03-09 00:11:00,38.1,1.6,30.02,NNE,24,0.0,0.0,21,0.00,,CLR,0.00,VWS V14.01,2013-03-09 05:11:00,
2013-03-09 00:16:00,36.9,1.6,30.02,NNE,24,0.0,0.0,22,0.00,,CLR,0.00,VWS V14.01,2013-03-09 05:16:00,
2013-03-09 00:21:00,37.8,1.4,30.02,NNE,24,0.0,0.0,21,0.00,,CLR,0.00,VWS V14.01,2013-03-09 05:21:00,
2013-03-09 00:26:00,38.7,2.1,30.02,NNE,24,0.0,0.0,21,0.00,,CLR,0.00,VWS V14.01,2013-03-09 05:26:00,
2013-03-09 00:31:00,39.0,2.4,30.02,NNE,24,0.0,0.0,21,0.00,,CLR,0.00,VWS V14.01,2013-03-09 05:31:00,
2013-03-09 00:36:00,39.2,2.6,30.02,NNE,24,0.0,0.0,21,0.00,,CLR,0.00,VWS V14.01,2013-03-09 05:36:00,
2013-03-09 00:41:00,39.2,2.6,30.02,NNE,24,0.0,0.0,21,0.00,,CLR,0.00,VWS V14.01,2013-03-09 05:41:00,
2013-03-09 00:46:00,39.2,2.6,30.02,NNE,24,0.0,0.0,21,0.00,,CLR,0.00,VWS V14.01,2013-03-09 05:46:00,
2013-03-09 00:51:00,39.0,2.4,30.02,NNE,24,0.0,0.0,21,0.00,,CLR,0.00,VWS V14.01,2013-03-09 05:51:00,
2013-03-09 00:57:00,39.0,2.4,30.02,NNE,24,0.0,0.0,21,0.00,,CLR,0.00,VWS V14.01,2013-03-09 05:57:00,
2013-03-09 01:02:00,38.8,2.3,30.02,NNE,24,0.0,0.0,21,0.00,,CLR,0.00,VWS V14.01,2013-03-09 06:02:00,
2013-03-09 01:07:00,39.0,2.4,30.02,NNE,24,0.0,0.0,21,0.00,,CLR,0.00,VWS V14.01,2013-03-09 06:07:00,
2013-03-09 01:12:00,38.3,1.8,30.02,NNE,24,0.0,0.0,21,0.00,,CLR,0.00,VWS V14.01,2013-03-09 06:12:00,
2013-03-09 01:17:00,37.9,1.5,30.02,NNE,24,0.0,0.0,21,0.00,,CLR,0.00,VWS V14.01,2013-03-09 06:17:00,
2013-03-09 01:22:00,37.4,1.0,30.02,NNE,24,0.0,0.0,21,0.00,,CLR,0.00,VWS V14.01,2013-03-09 06:22:00,
2013-03-09 01:27:00,37.0,1.7,30.02,NNE,24,0.0,0.0,22,0.00,,CLR,0.00,VWS V14.01,2013-03-09 06:27:00,
2013-03-09 01:32:00,36.5,1.3,30.02,NNE,24,0.0,0.0,22,0.00,,CLR,0.00,VWS V14.01,2013-03-09 06:32:00,
2013-03-09 01:37:00,36.5,1.3,30.02,NNE,24,0.0,0.0,22,0.00,,CLR,0.00,VWS V14.01,2013-03-09 06:37:00,
2013-03-09 01:42:00,37.0,1.7,30.02,NNE,24,0.0,0.0,22,0.00,,CLR,0.00,VWS V14.01,2013-03-09 06:42:00,
2013-03-09 01:48:00,36.9,1.6,30.02,NNE,24,0.0,0.0,22,0.00,,CLR,0.00,VWS V14.01,2013-03-09 06:48:00,
2013-03-09 01:53:00,37.0,1.7,30.02,NNE,24,0.0,0.0,22,0.00,,CLR,0.00,VWS V14.01,2013-03-09 06:53:00,
2013-03-09 01:58:00,36.9,1.6,30.02,NNE,24,0.0,0.0,22,0.00,,CLR,0.00,VWS V14.01,2013-03-09 06:58:00,
2013-03-09 02:03:00,36.1,1.0,30.02,NNE,24,0.0,0.0,22,0.00,,CLR,0.00,VWS V14.01,2013-03-09 07:03:00,
2013-03-09 02:08:00,35.4,0.4,30.02,NNE,24,0.0,0.0,22,0.00,,CLR,0.00,VWS V14.01,2013-03-09 07:08:00,
2013-03-09 02:13:00,35.1,0.1,30.02,NNE,24,0.0,0.0,22,0.00,,CLR,0.00,VWS V14.01,2013-03-09 07:13:00,
2013-03-09 02:18:00,34.9,-0.1,30.02,NNE,24,0.0,0.0,22,0.00,,CLR,0.00,VWS V14.01,2013-03-09 07:18:00,
2013-03-09 02:23:00,35.1,0.1,30.02,NNE,24,0.0,0.0,22,0.00,,CLR,0.00,VWS V14.01,2013-03-09 07:23:00,
2013-03-09 02:28:00,35.2,0.2,30.02,NNE,24,0.0,0.0,22,0.00,,CLR,0.00,VWS V14.01,2013-03-09 07:28:00,
2013-03-09 02:33:00,35.2,0.2,30.02,NNE,24,0.0,0.0,22,0.00,,CLR,0.00,VWS V14.01,2013-03-09 07:33:00,
2013-03-09 02:39:00,35.1,0.1,30.02,NNE,24,0.0,0.0,22,0.00,,CLR,0.00,VWS V14.01,2013-03-09 07:39:00,
2013-03-09 02:44:00,35.6,0.5,30.02,NNE,24,0.0,0.0,22,0.00,,CLR,0.00,VWS V14.01,2013-03-09 07:44:00,
2013-03-09 02:49:00,36.0,0.8,30.02,NNE,24,0.0,0.0,22,0.00,,CLR,0.00,VWS V14.01,2013-03-09 07:49:00,
2013-03-09 02:54:00,36.1,1.0,30.02,NNE,24,0.0,0.0,22,0.00,,CLR,0.00,VWS V14.01,2013-03-09 07:54:00,
2013-03-09 02:59:00,36.3,1.1,30.02,NNE,24,0.0,0.0,22,0.00,,CLR,0.00,VWS V14.01,2013-03-09 07:59:00,
2013-03-09 03:04:00,36.7,1.4,30.02,NNE,24,0.0,0.0,22,0.00,,CLR,0.00,VWS V14.01,2013-03-09 08:04:00,
2013-03-09 03:09:00,36.9,1.6,30.02,NNE,24,0.0,0.0,22,0.00,,CLR,0.00,VWS V14.01,2013-03-09 08:09:00,
2013-03-09 03:14:00,36.7,1.4,29.99,NNE,24,0.0,0.0,22,0.00,,CLR,0.00,VWS V14.01,2013-03-09 08:14:00,
2013-03-09 03:19:00,36.5,1.3,29.99,NNE,24,0.0,0.0,22,0.00,,CLR,0.00,VWS V14.01,2013-03-09 08:19:00,
2013-03-09 03:24:00,36.3,1.1,29.99,NNE,24,0.0,0.0,22,0.00,,CLR,0.00,VWS V14.01,2013-03-09 08:24:00,
2013-03-09 03:30:00,36.1,1.0,29.99,NNE,24,0.0,0.0,22,0.00,,CLR,0.00,VWS V14.01,2013-03-09 08:30:00,
2013-03-09 03:35:00,36.9,1.6,29.99,NNE,24,0.0,0.0,22,0.00,,CLR,0.00,VWS V14.01,2013-03-09 08:35:00,
2013-03-09 03:40:00,37.4,1.0,29.99,NNE,24,0.0,0.0,21,0.00,,CLR,0.00,VWS V14.01,2013-03-09 08:40:00,
2013-03-09 03:45:00,37.6,1.2,29.99,NNE,24,0.0,0.0,21,0.00,,CLR,0.00,VWS V14.01,2013-03-09 08:45:00,
2013-03-09 03:50:00,37.6,1.2,29.99,NNE,24,0.0,0.0,21,0.00,,CLR,0.00,VWS V14.01,2013-03-09 08:50:00,
2013-03-09 03:55:00,37.4,1.0,29.99,NNE,24,0.0,0.0,21,0.00,,CLR,0.00,VWS V14.01,2013-03-09 08:55:00,
2013-03-09 04:00:00,37.4,1.0,29.99,NNE,24,0.0,0.0,21,0.00,,CLR,0.00,VWS V14.01,2013-03-09 09:00:00,
2013-03-09 04:05:00,37.4,1.0,29.99,NNE,24,0.0,0.0,21,0.00,,CLR,0.00,VWS V14.01,2013-03-09 09:05:00,
2013-03-09 04:10:00,37.6,1.2,29.99,NNE,24,0.0,0.0,21,0.00,,CLR,0.00,VWS V14.01,2013-03-09 09:10:00,
2013-03-09 04:16:00,37.8,1.4,29.99,NNE,24,0.0,0.0,21,0.00,,CLR,0.00,VWS V14.01,2013-03-09 09:16:00,
2013-03-09 04:21:00,38.1,1.6,29.99,NNE,24,0.0,0.0,21,0.00,,CLR,0.00,VWS V14.01,2013-03-09 09:21:00,
2013-03-09 04:26:00,38.3,1.8,29.99,NNE,24,0.0,0.0,21,0.00,,CLR,0.00,VWS V14.01,2013-03-09 09:26:00,
2013-03-09 04:31:00,38.5,2.0,29.99,NNE,24,0.0,0.0,21,0.00,,CLR,0.00,VWS V14.01,2013-03-09 09:31:00,
2013-03-09 04:36:00,38.3,1.8,29.99,NNE,24,0.0,0.0,21,0.00,,CLR,0.00,VWS V14.01,2013-03-09 09:36:00,
2013-03-09 04:41:00,37.9,1.5,29.99,NNE,24,0.0,0.0,21,0.00,,CLR,0.00,VWS V14.01,2013-03-09 09:41:00,
2013-03-09 04:46:00,38.1,1.6,29.99,NNE,24,0.0,0.0,21,0.00,,CLR,0.00,VWS V14.01,2013-03-09 09:46:00,
2013-03-09 04:51:00,38.1,1.6,29.99,NNE,24,0.0,0.0,21,0.00,,CLR,0.00,VWS V14.01,2013-03-09 09:51:00,
2013-03-09 04:56:00,37.9,1.5,29.99,NNE,24,0.0,0.0,21,0.00,,CLR,0.00,VWS V14.01,2013-03-09 09:56:00,
2013-03-09 05:01:00,38.1,1.6,29.99,NNE,24,0.0,0.0,21,0.00,,CLR,0.00,VWS V14.01,2013-03-09 10:01:00,
2013-03-09 05:06:00,38.1,1.6,29.99,NNE,24,0.0,0.0,21,0.00,,CLR,0.00,VWS V14.01,2013-03-09 10:06:00,
2013-03-09 05:11:00,37.8,1.4,29.99,NNE,24,0.0,0.0,21,0.00,,CLR,0.00,VWS V14.01,2013-03-09 10:11:00,
2013-03-09 05:16:00,37.2,1.9,29.99,NNE,24,0.0,0.0,22,0.00,,CLR,0.00,VWS V14.01,2013-03-09 10:16:00,
2013-03-09 05:21:00,37.0,1.7,29.99,NNE,24,0.0,0.0,22,0.00,,CLR,0.00,VWS V14.01,2013-03-09 10:21:00,
2013-03-09 05:27:00,37.2,1.9,29.99,NNE,24,0.0,0.0,22,0.00,,CLR,0.00,VWS V14.01,2013-03-09 10:27:00,
2013-03-09 05:32:00,37.0,1.7,29.99,NNE,24,0.0,0.0,22,0.00,,CLR,0.00,VWS V14.01,2013-03-09 10:32:00,
2013-03-09 05:37:00,36.9,1.6,29.99,East,96,0.0,0.0,22,0.00,,CLR,0.00,VWS V14.01,2013-03-09 10:37:00,
2013-03-09 05:42:00,36.9,1.6,29.99,ESE,123,0.0,0.0,22,0.00,,CLR,0.00,VWS V14.01,2013-03-09 10:42:00,
2013-03-09 05:47:00,36.9,1.6,29.99,ESE,123,0.0,0.0,22,0.00,,CLR,0.00,VWS V14.01,2013-03-09 10:47:00,
2013-03-09 05:52:00,36.7,1.4,29.99,ESE,123,0.0,0.0,22,0.00,,CLR,0.00,VWS V14.01,2013-03-09 10:52:00,
2013-03-09 05:57:00,36.3,1.1,29.99,ESE,123,0.0,0.0,22,0.00,,CLR,0.00,VWS V14.01,2013-03-09 10:57:00,
2013-03-09 06:02:00,36.3,1.1,29.99,ESE,123,0.0,0.0,22,0.00,,CLR,0.00,VWS V14.01,2013-03-09 11:02:00,
2013-03-09 06:07:00,36.1,1.0,29.99,ESE,123,0.0,0.0,22,0.00,,CLR,0.00,VWS V14.01,2013-03-09 11:07:00,
2013-03-09 06:12:00,36.1,1.0,29.99,ESE,114,3.1,3.1,22,0.00,,CLR,0.00,VWS V14.01,2013-03-09 11:12:00,
2013-03-09 06:18:00,36.0,0.8,30.02,SE,145,2.7,2.7,22,0.00,,CLR,0.00,VWS V14.01,2013-03-09 11:18:00,
2013-03-09 06:23:00,35.8,0.7,30.02,SE,134,0.0,0.0,22,0.00,,CLR,0.00,VWS V14.01,2013-03-09 11:23:00,
2013-03-09 06:28:00,35.8,0.7,30.02,East,84,0.0,3.6,22,0.00,,CLR,0.00,VWS V14.01,2013-03-09 11:28:00,
2013-03-09 06:33:00,35.8,0.7,30.02,East,95,2.2,2.7,22,0.00,,CLR,0.00,VWS V14.01,2013-03-09 11:33:00,
2013-03-09 06:38:00,35.6,0.5,30.02,East,95,2.2,2.2,22,0.00,,CLR,0.00,VWS V14.01,2013-03-09 11:38:00,
2013-03-09 06:43:00,35.6,0.5,30.02,SSE,148,0.0,0.0,22,0.00,,CLR,0.00,VWS V14.01,2013-03-09 11:43:00,
2013-03-09 06:48:00,35.2,0.2,30.02,SE,141,0.0,0.0,22,0.00,,CLR,0.00,VWS V14.01,2013-03-09 11:48:00,
2013-03-09 06:53:00,35.1,0.1,30.02,SE,141,0.0,0.0,22,0.00,,CLR,0.00,VWS V14.01,2013-03-09 11:53:00,
2013-03-09 06:58:00,35.1,0.1,30.02,SE,142,0.0,2.2,22,0.00,,CLR,0.00,VWS V14.01,2013-03-09 11:58:00,
2013-03-09 07:03:00,34.9,-0.1,30.02,SE,142,0.0,0.0,22,0.00,,CLR,0.00,VWS V14.01,2013-03-09 12:03:00,
2013-03-09 07:08:00,34.5,-0.4,30.02,SE,142,0.0,0.0,22,0.00,,CLR,0.00,VWS V14.01,2013-03-09 12:08:00,
2013-03-09 07:13:00,34.3,-0.6,30.02,SE,142,0.0,0.0,22,0.00,,CLR,0.00,VWS V14.01,2013-03-09 12:13:00,
2013-03-09 07:18:00,34.0,-0.9,30.02,West,262,0.0,0.0,22,0.00,,CLR,0.00,VWS V14.01,2013-03-09 12:18:00,
2013-03-09 07:23:00,34.2,-0.7,30.02,SE,124,0.0,3.6,22,0.00,,CLR,0.00,VWS V14.01,2013-03-09 12:23:00,
2013-03-09 07:29:00,34.3,-0.6,30.02,South,171,3.6,3.6,22,0.00,,CLR,0.00,VWS V14.01,2013-03-09 12:29:00,
2013-03-09 07:34:00,34.5,-0.4,30.02,South,179,0.0,3.1,22,0.00,,CLR,0.00,VWS V14.01,2013-03-09 12:34:00,
2013-03-09 07:39:00,34.7,-0.2,30.02,South,179,0.0,0.0,22,0.00,,CLR,0.00,VWS V14.01,2013-03-09 12:39:00,
2013-03-09 07:44:00,34.9,-0.1,30.02,South,174,0.0,0.0,22,0.00,,CLR,0.00,VWS V14.01,2013-03-09 12:44:00,
2013-03-09 07:49:00,35.1,0.1,30.02,South,174,0.0,0.0,22,0.00,,CLR,0.00,VWS V14.01,2013-03-09 12:49:00,
2013-03-09 07:54:00,35.6,0.5,30.02,SSE,159,0.0,0.0,22,0.00,,CLR,0.00,VWS V14.01,2013-03-09 12:54:00,
2013-03-09 07:59:00,35.8,0.7,30.02,SE,142,0.0,0.0,22,0.00,,CLR,0.00,VWS V14.01,2013-03-09 12:59:00,
2013-03-09 08:04:00,36.1,1.0,30.02,SE,143,0.0,0.0,22,0.00,,CLR,0.00,VWS V14.01,2013-03-09 13:04:00,
2013-03-09 08:09:00,36.7,1.4,30.02,SE,143,0.0,0.0,22,0.00,,CLR,0.00,VWS V14.01,2013-03-09 13:09:00,
2013-03-09 08:15:00,37.8,1.4,30.02,SE,143,0.0,0.0,21,0.00,,CLR,0.00,VWS V14.01,2013-03-09 13:15:00,
2013-03-09 08:20:00,38.8,2.3,30.02,SSE,150,0.0,0.0,21,0.00,,CLR,0.00,VWS V14.01,2013-03-09 13:20:00,
2013-03-09 08:25:00,39.2,2.6,30.02,SSE,162,2.7,2.7,21,0.00,,CLR,0.00,VWS V14.01,2013-03-09 13:25:00,
2013-03-09 08:30:00,39.7,3.0,30.05,SW,233,0.0,0.0,21,0.00,,CLR,0.00,VWS V14.01,2013-03-09 13:30:00,
2013-03-09 08:35:00,40.1,3.3,30.05,SW,233,0.0,0.0,21,0.00,,CLR,0.00,VWS V14.01,2013-03-09 13:35:00,
2013-03-09 08:40:00,39.9,3.2,30.05,SE,137,0.0,2.7,21,0.00,,CLR,0.00,VWS V14.01,2013-03-09 13:40:00,
2013-03-09 08:45:00,40.5,3.6,30.05,SE,137,0.0,0.0,21,0.00,,CLR,0.00,VWS V14.01,2013-03-09 13:45:00,
2013-03-09 08:50:00,40.8,3.9,30.05,SE,137,0.0,2.7,21,0.00,,CLR,0.00,VWS V14.01,2013-03-09 13:50:00,
2013-03-09 08:56:00,40.6,3.8,30.05,SE,137,2.7,3.1,21,0.00,,CLR,0.00,VWS V14.01,2013-03-09 13:56:00,
2013-03-09 09:01:00,40.6,3.8,30.05,SE,137,0.0,0.0,21,0.00,,CLR,0.00,VWS V14.01,2013-03-09 14:01:00,
2013-03-09 09:06:00,41.2,4.2,30.05,SE,135,2.2,2.7,21,0.00,,CLR,0.00,VWS V14.01,2013-03-09 14:06:00,
2013-03-09 09:11:00,43.2,4.8,30.05,SE,136,2.2,3.1,20,0.00,,CLR,0.00,VWS V14.01,2013-03-09 14:11:00,
2013-03-09 09:16:00,44.8,6.2,30.02,South,169,2.7,2.7,20,0.00,,CLR,0.00,VWS V14.01,2013-03-09 14:16:00,
2013-03-09 09:21:00,46.4,6.4,30.02,SW,219,3.1,4.0,19,0.00,,CLR,0.00,VWS V14.01,2013-03-09 14:21:00,
2013-03-09 09:26:00,47.7,7.4,30.02,SW,222,3.1,4.9,19,0.00,,CLR,0.00,VWS V14.01,2013-03-09 14:26:00,
2013-03-09 09:31:00,48.7,8.3,30.05,SE,137,3.6,4.0,19,0.00,,CLR,0.00,VWS V14.01,2013-03-09 14:31:00,
2013-03-09 09:36:00,49.5,8.9,30.05,SSE,168,3.1,3.6,19,0.00,,CLR,0.00,VWS V14.01,2013-03-09 14:36:00,
2013-03-09 09:41:00,50.2,9.5,30.05,SW,231,3.1,3.1,19,0.00,,CLR,0.00,VWS V14.01,2013-03-09 14:41:00,
2013-03-09 09:46:00,50.5,9.8,30.05,SSW,194,3.1,3.1,19,0.00,,CLR,0.00,VWS V14.01,2013-03-09 14:46:00,
2013-03-09 09:51:00,51.1,10.3,30.05,ENE,62,2.7,4.9,19,0.00,,CLR,0.00,VWS V14.01,2013-03-09 14:51:00,
2013-03-09 09:56:00,51.3,10.4,30.05,SE,144,2.7,2.7,19,0.00,,CLR,0.00,VWS V14.01,2013-03-09 14:56:00,
2013-03-09 10:02:00,51.8,9.7,30.05,SW,219,3.1,3.1,18,0.00,,CLR,0.00,VWS V14.01,2013-03-09 15:02:00,
2013-03-09 10:07:00,51.8,9.7,30.05,SE,140,0.0,4.9,18,0.00,,CLR,0.00,VWS V14.01,2013-03-09 15:07:00,
2013-03-09 10:12:00,53.1,10.7,30.05,SSW,206,0.0,2.7,18,0.00,,CLR,0.00,VWS V14.01,2013-03-09 15:12:00,
2013-03-09 10:17:00,54.0,11.4,30.05,SW,217,2.2,4.0,18,0.00,,CLR,0.00,VWS V14.01,2013-03-09 15:17:00,
2013-03-09 10:22:00,53.8,11.3,30.05,SW,216,2.2,3.6,18,0.00,,CLR,0.00,VWS V14.01,2013-03-09 15:22:00,
2013-03-09 10:27:00,54.3,11.7,30.05,SE,138,3.1,3.6,18,0.00,,CLR,0.00,VWS V14.01,2013-03-09 15:27:00,
2013-03-09 10:32:00,54.7,12.0,30.05,SSE,166,2.7,2.7,18,0.00,,CLR,0.00,VWS V14.01,2013-03-09 15:32:00,
2013-03-09 10:37:00,54.9,12.2,30.05,South,186,2.7,3.1,18,0.00,,CLR,0.00,VWS V14.01,2013-03-09 15:37:00,
2013-03-09 10:42:00,55.9,11.8,30.05,SSE,162,2.7,3.6,17,0.00,,CLR,0.00,VWS V14.01,2013-03-09 15:42:00,
2013-03-09 10:47:00,56.1,11.9,30.05,SSE,166,2.7,4.0,17,0.00,,CLR,0.00,VWS V14.01,2013-03-09 15:47:00,
2013-03-09 10:52:00,56.5,12.2,30.05,SSE,148,4.9,4.9,17,0.00,,CLR,0.00,VWS V14.01,2013-03-09 15:52:00,
2013-03-09 10:57:00,57.0,12.7,30.05,ESE,111,2.2,4.0,17,0.00,,CLR,0.00,VWS V14.01,2013-03-09 15:57:00,
2013-03-09 11:03:00,56.7,12.4,30.05,SE,137,3.6,3.6,17,0.00,,CLR,0.00,VWS V14.01,2013-03-09 16:03:00,
2013-03-09 11:08:00,56.8,12.5,30.05,West,272,4.0,6.3,17,0.00,,CLR,0.00,VWS V14.01,2013-03-09 16:08:00,
2013-03-09 11:13:00,57.9,13.4,30.05,South,179,3.1,5.4,17,0.00,,CLR,0.00,VWS V14.01,2013-03-09 16:13:00,
2013-03-09 11:18:00,58.5,13.8,30.05,SSE,158,0.0,0.0,17,0.00,,CLR,0.00,VWS V14.01,2013-03-09 16:18:00,
2013-03-09 11:23:00,59.4,17.1,30.05,SE,145,0.0,0.0,19,0.00,,CLR,0.00,VWS V14.01,2013-03-09 16:23:00,
2013-03-09 11:28:00,59.9,17.6,30.05,SSE,154,0.0,3.6,19,0.00,,CLR,0.00,VWS V14.01,2013-03-09 16:28:00,
2013-03-09 11:33:00,59.7,17.4,30.05,SW,230,3.6,5.8,19,0.00,,CLR,0.00,VWS V14.01,2013-03-09 16:33:00,
2013-03-09 11:38:00,60.3,17.9,30.05,SSE,160,3.6,4.0,19,0.00,,CLR,0.00,VWS V14.01,2013-03-09 16:38:00,
2013-03-09 11:43:00,60.3,17.9,30.05,SW,233,2.2,4.9,19,0.00,,CLR,0.00,VWS V14.01,2013-03-09 16:43:00,
2013-03-09 11:48:00,59.7,17.4,30.05,South,180,3.6,4.0,19,0.00,,CLR,0.00,VWS V14.01,2013-03-09 16:48:00,
2013-03-09 11:53:00,60.8,18.3,30.05,SSW,192,2.7,4.5,19,0.00,,CLR,0.00,VWS V14.01,2013-03-09 16:53:00,
2013-03-09 11:58:00,61.9,19.2,30.05,SE,133,4.9,6.3,19,0.00,,CLR,0.00,VWS V14.01,2013-03-09 16:58:00,
2013-03-09 12:03:00,60.4,18.0,30.05,East,88,6.3,6.3,19,0.00,,CLR,0.00,VWS V14.01,2013-03-09 17:03:00,
2013-03-09 12:08:00,60.1,17.7,30.05,SE,146,3.1,6.3,19,0.00,,CLR,0.00,VWS V14.01,2013-03-09 17:08:00,
2013-03-09 12:14:00,60.4,18.0,30.05,South,175,3.1,4.0,19,0.00,,CLR,0.00,VWS V14.01,2013-03-09 17:14:00,
2013-03-09 12:19:00,60.4,18.0,30.05,SSW,212,3.1,4.0,19,0.00,,CLR,0.00,VWS V14.01,2013-03-09 17:19:00,
2013-03-09 12:24:00,61.5,18.9,30.05,South,175,3.1,4.0,19,0.00,,CLR,0.00,VWS V14.01,2013-03-09 17:24:00,
2013-03-09 12:29:00,62.2,19.5,30.05,SE,137,3.1,3.1,19,0.00,,CLR,0.00,VWS V14.01,2013-03-09 17:29:00,
2013-03-09 12:34:00,63.9,19.6,30.05,SSW,196,4.0,4.0,18,0.00,,CLR,0.00,VWS V14.01,2013-03-09 17:34:00,
2013-03-09 12:39:00,65.1,20.6,30.05,South,169,2.2,2.2,18,0.00,,CLR,0.00,VWS V14.01,2013-03-09 17:39:00,
2013-03-09 12:44:00,63.3,19.1,30.05,SW,224,5.8,6.3,18,0.00,,CLR,0.00,VWS V14.01,2013-03-09 17:44:00,
2013-03-09 12:49:00,62.8,18.7,30.05,SW,236,2.7,2.7,18,0.00,,CLR,0.00,VWS V14.01,2013-03-09 17:49:00,
2013-03-09 12:54:00,63.5,19.3,30.05,ESE,114,3.6,4.0,18,0.00,,CLR,0.00,VWS V14.01,2013-03-09 17:54:00,
2013-03-09 12:59:00,63.1,19.0,30.05,SE,132,2.2,2.2,18,0.00,,CLR,0.00,VWS V14.01,2013-03-09 17:59:00,
2013-03-09 13:04:00,63.9,19.6,30.05,ENE,72,3.1,4.9,18,0.00,,CLR,0.00,VWS V14.01,2013-03-09 18:04:00,
2013-03-09 13:10:00,63.0,18.8,30.05,East,85,3.6,3.6,18,0.00,,CLR,0.00,VWS V14.01,2013-03-09 18:10:00,
2013-03-09 13:15:00,63.5,19.3,30.05,ESE,118,0.0,4.9,18,0.00,,CLR,0.00,VWS V14.01,2013-03-09 18:15:00,
2013-03-09 13:20:00,64.8,20.3,30.05,SSW,196,5.4,5.4,18,0.00,,CLR,0.00,VWS V14.01,2013-03-09 18:20:00,
2013-03-09 13:25:00,65.8,21.2,30.05,South,189,5.4,5.4,18,0.00,,CLR,0.00,VWS V14.01,2013-03-09 18:25:00,
2013-03-09 13:30:00,66.7,20.6,30.02,WSW,253,3.1,3.6,17,0.00,,CLR,0.00,VWS V14.01,2013-03-09 18:30:00,
2013-03-09 13:35:00,66.9,20.7,30.02,SE,126,3.6,4.0,17,0.00,,CLR,0.00,VWS V14.01,2013-03-09 18:35:00,
2013-03-09 13:40:00,67.3,21.0,30.02,East,82,4.0,4.0,17,0.00,,CLR,0.00,VWS V14.01,2013-03-09 18:40:00,
2013-03-09 13:45:00,67.3,21.0,30.02,SE,141,3.1,4.0,17,0.00,,CLR,0.00,VWS V14.01,2013-03-09 18:45:00,
2013-03-09 13:51:00,68.2,21.7,30.02,South,176,5.4,5.4,17,0.00,,CLR,0.00,VWS V14.01,2013-03-09 18:51:00,
2013-03-09 13:56:00,68.4,21.9,30.02,South,172,2.7,4.0,17,0.00,,CLR,0.00,VWS V14.01,2013-03-09 18:56:00,
2013-03-09 14:01:00,68.4,21.9,30.02,WSW,237,4.0,4.0,17,0.00,,CLR,0.00,VWS V14.01,2013-03-09 19:01:00,
2013-03-09 14:06:00,69.3,22.6,30.02,South,188,2.2,2.2,17,0.00,,CLR,0.00,VWS V14.01,2013-03-09 19:06:00,
2013-03-09 14:11:00,70.0,23.2,30.02,SE,131,2.2,4.0,17,0.00,,CLR,0.00,VWS V14.01,2013-03-09 19:11:00,
2013-03-09 14:16:00,70.7,23.8,29.99,SSE,154,0.0,2.7,17,0.00,,CLR,0.00,VWS V14.01,2013-03-09 19:16:00,
2013-03-09 14:21:00,70.7,23.8,29.99,SSW,211,3.1,3.1,17,0.00,,CLR,0.00,VWS V14.01,2013-03-09 19:21:00,
2013-03-09 14:27:00,71.1,24.1,29.99,South,170,4.5,4.5,17,0.00,,CLR,0.00,VWS V14.01,2013-03-09 19:27:00,
2013-03-09 14:32:00,70.2,23.4,29.99,SE,137,6.7,6.7,17,0.00,,CLR,0.00,VWS V14.01,2013-03-09 19:32:00,
2013-03-09 14:37:00,70.2,23.4,29.99,South,187,3.1,4.9,17,0.00,,CLR,0.00,VWS V14.01,2013-03-09 19:37:00,
2013-03-09 14:42:00,70.3,23.5,29.99,SSW,194,5.8,5.8,17,0.00,,CLR,0.00,VWS V14.01,2013-03-09 19:42:00,
2013-03-09 14:47:00,70.0,23.2,29.99,SW,233,3.1,5.8,17,0.00,,CLR,0.00,VWS V14.01,2013-03-09 19:47:00,
2013-03-09 14:52:00,70.7,23.8,29.99,ESE,115,5.4,5.4,17,0.00,,CLR,0.00,VWS V14.01,2013-03-09 19:52:00,
2013-03-09 14:57:00,71.4,24.4,29.99,SW,222,2.7,2.7,17,0.00,,CLR,0.00,VWS V14.01,2013-03-09 19:57:00,
2013-03-09 15:02:00,71.2,24.2,29.99,SSE,162,3.6,3.6,17,0.00,,CLR,0.00,VWS V14.01,2013-03-09 20:02:00,
2013-03-09 15:07:00,70.9,23.9,29.99,South,191,3.6,3.6,17,0.00,,CLR,0.00,VWS V14.01,2013-03-09 20:07:00,
2013-03-09 15:13:00,70.2,23.4,29.99,South,184,7.6,7.6,17,0.00,,CLR,0.00,VWS V14.01,2013-03-09 20:13:00,
2013-03-09 15:18:00,70.2,23.4,29.99,WSW,240,4.0,4.0,17,0.00,,CLR,0.00,VWS V14.01,2013-03-09 20:18:00,
2013-03-09 15:23:00,70.5,23.6,29.99,ENE,72,3.1,3.6,17,0.00,,CLR,0.00,VWS V14.01,2013-03-09 20:23:00,
2013-03-09 15:28:00,71.4,24.4,29.99,SSW,193,2.7,3.1,17,0.00,,CLR,0.00,VWS V14.01,2013-03-09 20:28:00,
2013-03-09 15:33:00,72.0,23.4,29.99,South,179,2.2,2.7,16,0.00,,CLR,0.00,VWS V14.01,2013-03-09 20:33:00,
2013-03-09 15:38:00,72.0,23.4,29.99,SSE,149,2.7,3.1,16,0.00,,CLR,0.00,VWS V14.01,2013-03-09 20:38:00,
2013-03-09 15:44:00,71.8,23.2,29.99,SSE,160,2.7,3.1,16,0.00,,CLR,0.00,VWS V14.01,2013-03-09 20:44:00,
2013-03-09 15:49:00,72.0,23.4,29.99,South,176,3.1,3.6,16,0.00,,CLR,0.00,VWS V14.01,2013-03-09 20:49:00,
2013-03-09 15:54:00,70.3,23.5,29.99,WSW,246,3.1,3.1,17,0.00,,CLR,0.00,VWS V14.01,2013-03-09 20:54:00,
2013-03-09 15:59:00,70.0,23.2,29.99,South,186,5.4,5.4,17,0.00,,CLR,0.00,VWS V14.01,2013-03-09 20:59:00,
2013-03-09 16:04:00,70.0,23.2,29.99,SE,143,2.7,2.7,17,0.00,,CLR,0.00,VWS V14.01,2013-03-09 21:04:00,
2013-03-09 16:09:00,68.5,22.0,29.99,SSW,209,2.7,3.1,17,0.00,,CLR,0.00,VWS V14.01,2013-03-09 21:09:00,
2013-03-09 16:14:00,68.5,22.0,29.99,SW,220,4.0,4.9,17,0.00,,CLR,0.00,VWS V14.01,2013-03-09 21:14:00,
2013-03-09 16:20:00,68.9,22.3,29.99,SE,138,3.6,4.9,17,0.00,,CLR,0.00,VWS V14.01,2013-03-09 21:20:00,
2013-03-09 16:25:00,69.1,22.5,29.99,SW,226,3.1,3.1,17,0.00,,CLR,0.00,VWS V14.01,2013-03-09 21:25:00,
2013-03-09 16:30:00,69.6,22.9,29.99,SE,132,2.7,3.6,17,0.00,,CLR,0.00,VWS V14.01,2013-03-09 21:30:00,
2013-03-09 16:35:00,69.3,22.6,29.99,SE,143,3.1,5.8,17,0.00,,CLR,0.00,VWS V14.01,2013-03-09 21:35:00,
2013-03-09 16:40:00,66.0,21.3,29.99,SSW,202,3.1,4.0,18,0.00,,CLR,0.00,VWS V14.01,2013-03-09 21:40:00,
2013-03-09 16:45:00,62.4,19.6,29.99,South,173,2.2,2.7,19,0.00,,CLR,0.00,VWS V14.01,2013-03-09 21:45:00,
2013-03-09 16:50:00,60.4,18.0,29.99,SSW,195,0.0,0.0,19,0.00,,CLR,0.00,VWS V14.01,2013-03-09 21:50:00,
2013-03-09 16:55:00,60.1,17.7,29.99,SSE,157,3.1,3.6,19,0.00,,CLR,0.00,VWS V14.01,2013-03-09 21:55:00,
2013-03-09 17:00:00,60.8,18.3,29.99,SSE,165,3.1,3.1,19,0.00,,CLR,0.00,VWS V14.01,2013-03-09 22:00:00,
2013-03-09 17:05:00,60.6,18.2,29.99,WSW,249,2.7,3.1,19,0.00,,CLR,0.00,VWS V14.01,2013-03-09 22:05:00,
2013-03-09 17:11:00,59.4,17.1,29.99,SSE,147,0.0,0.0,19,0.00,,CLR,0.00,VWS V14.01,2013-03-09 22:11:00,
2013-03-09 17:16:00,57.9,15.9,29.99,South,169,2.2,3.6,19,0.00,,CLR,0.00,VWS V14.01,2013-03-09 22:16:00,
2013-03-09 17:21:00,56.8,16.2,29.99,SSE,158,2.2,2.2,20,0.00,,CLR,0.00,VWS V14.01,2013-03-09 22:21:00,
2013-03-09 17:26:00,55.8,11.6,29.99,South,174,0.0,2.7,17,0.00,,CLR,0.00,VWS V14.01,2013-03-09 22:26:00,
2013-03-09 17:31:00,54.3,11.7,29.99,SSE,154,2.7,2.7,18,0.00,,CLR,0.00,VWS V14.01,2013-03-09 22:31:00,
2013-03-09 17:36:00,53.8,11.3,29.99,SE,126,2.2,2.2,18,0.00,,CLR,0.00,VWS V14.01,2013-03-09 22:36:00,
2013-03-09 17:41:00,53.6,11.1,29.99,South,172,2.7,2.7,18,0.00,,CLR,0.00,VWS V14.01,2013-03-09 22:41:00,
2013-03-09 17:46:00,52.7,10.4,29.99,SE,141,2.2,3.1,18,0.00,,CLR,0.00,VWS V14.01,2013-03-09 22:46:00,
2013-03-09 17:51:00,51.4,10.6,29.99,South,185,2.7,2.7,19,0.00,,CLR,0.00,VWS V14.01,2013-03-09 22:51:00,
2013-03-09 17:56:00,50.5,9.8,29.99,South,172,0.0,5.4,19,0.00,,CLR,0.00,VWS V14.01,2013-03-09 22:56:00,
2013-03-09 18:02:00,49.8,9.2,30.02,WSW,248,0.0,0.0,19,0.00,,SCT120,0.00,VWS V14.01,2013-03-09 23:02:00,
2013-03-09 18:07:00,49.1,8.6,30.02,South,182,0.0,2.2,19,0.00,,SCT120,0.00,VWS V14.01,2013-03-09 23:07:00,
2013-03-09 18:12:00,48.7,8.3,30.02,ESE,119,2.2,3.6,19,0.00,,SCT120,0.00,VWS V14.01,2013-03-09 23:12:00,
2013-03-09 18:17:00,48.4,8.0,30.02,ESE,119,0.0,0.0,19,0.00,,SCT120,0.00,VWS V14.01,2013-03-09 23:17:00,
2013-03-09 18:22:00,48.0,7.7,30.02,ESE,119,0.0,0.0,19,0.00,,SCT120,0.00,VWS V14.01,2013-03-09 23:22:00,
2013-03-09 18:27:00,47.5,7.3,30.02,South,191,0.0,0.0,19,0.00,,SCT120,0.00,VWS V14.01,2013-03-09 23:27:00,
2013-03-09 18:32:00,47.1,7.0,30.02,South,191,0.0,0.0,19,0.00,,SCT120,0.00,VWS V14.01,2013-03-09 23:32:00,
2013-03-09 18:37:00,46.8,6.7,30.02,SSE,156,0.0,3.1,19,0.00,,SCT120,0.00,VWS V14.01,2013-03-09 23:37:00,
2013-03-09 18:42:00,46.6,6.5,30.02,SSE,156,0.0,0.0,19,0.00,,SCT120,0.00,VWS V14.01,2013-03-09 23:42:00,
2013-03-09 18:48:00,46.4,6.4,30.02,SSE,156,0.0,0.0,19,0.00,,SCT120,0.00,VWS V14.01,2013-03-09 23:48:00,
2013-03-09 18:53:00,46.4,6.4,30.02,SE,139,2.2,3.6,19,0.00,,SCT120,0.00,VWS V14.01,2013-03-09 23:53:00,
2013-03-09 18:58:00,46.4,6.4,30.02,SE,139,0.0,0.0,19,0.00,,SCT120,0.00,VWS V14.01,2013-03-09 23:58:00,
2013-03-09 19:03:00,46.2,7.4,30.02,SE,139,0.0,0.0,20,0.00,,CLR,0.00,VWS V14.01,2013-03-10 00:03:00,
2013-03-09 19:08:00,46.2,7.4,30.02,SE,139,0.0,0.0,20,0.00,,CLR,0.00,VWS V14.01,2013-03-10 00:08:00,
2013-03-09 19:13:00,46.2,7.4,30.02,SE,139,0.0,0.0,20,0.00,,CLR,0.00,VWS V14.01,2013-03-10 00:13:00,
2013-03-09 19:18:00,46.2,7.4,30.02,SE,139,0.0,0.0,20,0.00,,CLR,0.00,VWS V14.01,2013-03-10 00:18:00,
2013-03-09 19:23:00,46.0,7.2,30.02,SE,139,0.0,0.0,20,0.00,,CLR,0.00,VWS V14.01,2013-03-10 00:23:00,
2013-03-09 19:28:00,46.0,7.2,30.02,SE,139,0.0,0.0,20,0.00,,CLR,0.00,VWS V14.01,2013-03-10 00:28:00,
2013-03-09 19:33:00,46.0,7.2,30.02,SE,139,0.0,0.0,20,0.00,,CLR,0.00,VWS V14.01,2013-03-10 00:33:00,
2013-03-09 19:38:00,46.0,7.2,30.02,SE,139,0.0,0.0,20,0.00,,CLR,0.00,VWS V14.01,2013-03-10 00:38:00,
2013-03-09 19:44:00,46.2,7.4,30.02,WSW,255,0.0,0.0,20,0.00,,CLR,0.00,VWS V14.01,2013-03-10 00:44:00,
2013-03-09 19:49:00,46.2,7.4,30.02,WSW,255,0.0,0.0,20,0.00,,CLR,0.00,VWS V14.01,2013-03-10 00:49:00,
2013-03-09 19:54:00,46.2,7.4,30.02,SSW,194,0.0,0.0,20,0.00,,CLR,0.00,VWS V14.01,2013-03-10 00:54:00,
2013-03-09 19:59:00,46.2,7.4,30.02,SSW,194,0.0,0.0,20,0.00,,CLR,0.00,VWS V14.01,2013-03-10 00:59:00,
2013-03-09 20:04:00,46.2,7.4,30.02,South,187,0.0,0.0,20,0.00,,BKN120,0.00,VWS V14.01,2013-03-10 01:04:00,
2013-03-09 20:09:00,46.2,7.4,30.02,South,186,0.0,0.0,20,0.00,,BKN120,0.00,VWS V14.01,2013-03-10 01:09:00,
2013-03-09 20:14:00,46.4,6.4,30.02,SE,130,2.2,2.7,19,0.00,,BKN120,0.00,VWS V14.01,2013-03-10 01:14:00,
2013-03-09 20:19:00,46.4,6.4,30.02,SE,143,3.1,3.1,19,0.00,,BKN120,0.00,VWS V14.01,2013-03-10 01:19:00,
2013-03-09 20:24:00,46.4,6.4,30.02,SE,143,0.0,0.0,19,0.00,,BKN120,0.00,VWS V14.01,2013-03-10 01:24:00,
2013-03-09 20:29:00,46.4,6.4,30.02,SE,143,0.0,0.0,19,0.00,,BKN120,0.00,VWS V14.01,2013-03-10 01:29:00,
2013-03-09 20:35:00,46.2,7.4,30.02,SE,143,0.0,0.0,20,0.00,,BKN120,0.00,VWS V14.01,2013-03-10 01:35:00,
2013-03-09 20:40:00,46.0,7.2,30.02,SE,143,0.0,0.0,20,0.00,,BKN120,0.00,VWS V14.01,2013-03-10 01:40:00,
2013-03-09 20:45:00,45.9,7.1,30.02,SE,143,0.0,0.0,20,0.00,,BKN120,0.00,VWS V14.01,2013-03-10 01:45:00,
2013-03-09 20:50:00,45.3,6.6,30.02,SE,145,3.6,3.6,20,0.00,,BKN120,0.00,VWS V14.01,2013-03-10 01:50:00,
2013-03-09 20:55:00,45.1,6.5,30.02,SE,145,0.0,0.0,20,0.00,,BKN120,0.00,VWS V14.01,2013-03-10 01:55:00,
2013-03-09 21:00:00,45.0,6.3,30.02,SE,136,3.1,3.1,20,0.00,,OVC100,0.00,VWS V14.01,2013-03-10 02:00:00,
2013-03-09 21:05:00,44.6,6.0,30.02,SE,136,0.0,0.0,20,0.00,,OVC100,0.00,VWS V14.01,2013-03-10 02:05:00,
2013-03-09 21:11:00,44.2,5.7,30.02,SE,136,0.0,0.0,20,0.00,,OVC100,0.00,VWS V14.01,2013-03-10 02:11:00,
2013-03-09 21:16:00,44.1,5.6,30.02,SE,136,0.0,0.0,20,0.00,,OVC100,0.00,VWS V14.01,2013-03-10 02:16:00,
2013-03-09 21:21:00,43.7,5.3,30.02,SE,141,2.2,4.0,20,0.00,,OVC100,0.00,VWS V14.01,2013-03-10 02:21:00,
2013-03-09 21:26:00,43.7,5.3,30.02,SE,141,0.0,0.0,20,0.00,,OVC100,0.00,VWS V14.01,2013-03-10 02:26:00,
2013-03-09 21:31:00,43.7,5.3,30.02,SE,141,0.0,0.0,20,0.00,,OVC100,0.00,VWS V14.01,2013-03-10 02:31:00,
2013-03-09 21:36:00,43.5,5.1,30.02,SE,141,0.0,0.0,20,0.00,,OVC100,0.00,VWS V14.01,2013-03-10 02:36:00,
2013-03-09 21:41:00,43.5,5.1,30.02,SE,141,0.0,0.0,20,0.00,,OVC100,0.00,VWS V14.01,2013-03-10 02:41:00,
2013-03-09 21:46:00,43.5,5.1,30.02,SE,141,0.0,0.0,20,0.00,,OVC100,0.00,VWS V14.01,2013-03-10 02:46:00,
2013-03-09 21:51:00,43.3,5.0,30.02,SE,141,0.0,0.0,20,0.00,,OVC100,0.00,VWS V14.01,2013-03-10 02:51:00,
2013-03-09 21:57:00,43.5,5.1,30.02,SE,141,0.0,0.0,20,0.00,,OVC100,0.00,VWS V14.01,2013-03-10 02:57:00,
2013-03-09 22:02:00,43.7,5.3,30.02,SE,141,0.0,0.0,20,0.00,,OVC100,0.00,VWS V14.01,2013-03-10 03:02:00,
2013-03-09 22:07:00,43.7,5.3,30.02,SE,141,0.0,0.0,20,0.00,,OVC100,0.00,VWS V14.01,2013-03-10 03:07:00,
2013-03-09 22:12:00,43.7,5.3,30.02,SE,141,0.0,0.0,20,0.00,,OVC100,0.00,VWS V14.01,2013-03-10 03:12:00,
2013-03-09 22:17:00,43.9,5.4,30.02,SE,141,0.0,0.0,20,0.00,,OVC100,0.00,VWS V14.01,2013-03-10 03:17:00,
2013-03-09 22:22:00,43.7,5.3,30.02,SE,141,0.0,0.0,20,0.00,,OVC100,0.00,VWS V14.01,2013-03-10 03:22:00,
2013-03-09 22:27:00,43.7,5.3,30.02,SE,141,0.0,0.0,20,0.00,,OVC100,0.00,VWS V14.01,2013-03-10 03:27:00,
2013-03-09 22:33:00,43.7,5.3,30.02,SE,141,0.0,0.0,20,0.00,,OVC100,0.00,VWS V14.01,2013-03-10 03:33:00,
2013-03-09 22:38:00,43.9,5.4,30.02,SE,141,0.0,0.0,20,0.00,,OVC100,0.00,VWS V14.01,2013-03-10 03:38:00,
2013-03-09 22:43:00,43.9,5.4,30.02,SE,141,0.0,0.0,20,0.00,,OVC100,0.00,VWS V14.01,2013-03-10 03:43:00,
2013-03-09 22:48:00,43.7,5.3,30.02,SE,141,0.0,0.0,20,0.00,,OVC100,0.00,VWS V14.01,2013-03-10 03:48:00,
2013-03-09 22:53:00,43.5,5.1,30.02,SE,141,0.0,0.0,20,0.00,,OVC100,0.00,VWS V14.01,2013-03-10 03:53:00,
2013-03-09 22:58:00,43.5,5.1,30.02,SE,141,0.0,0.0,20,0.00,,OVC100,0.00,VWS V14.01,2013-03-10 03:58:00,
2013-03-09 23:03:00,43.5,5.1,30.02,SE,141,0.0,0.0,20,0.00,,FEW120,0.00,VWS V14.01,2013-03-10 04:03:00,
2013-03-09 23:08:00,43.5,5.1,30.02,SE,141,0.0,0.0,20,0.00,,FEW120,0.00,VWS V14.01,2013-03-10 04:08:00,
2013-03-09 23:13:00,43.7,5.3,30.02,SE,141,0.0,0.0,20,0.00,,FEW120,0.00,VWS V14.01,2013-03-10 04:13:00,
2013-03-09 23:19:00,43.7,5.3,30.02,SE,141,0.0,0.0,20,0.00,,FEW120,0.00,VWS V14.01,2013-03-10 04:19:00,
2013-03-09 23:24:00,43.7,5.3,30.02,SE,141,0.0,0.0,20,0.00,,FEW120,0.00,VWS V14.01,2013-03-10 04:24:00,
2013-03-09 23:29:00,43.9,5.4,30.02,SE,141,0.0,0.0,20,0.00,,FEW120,0.00,VWS V14.01,2013-03-10 04:29:00,
2013-03-09 23:34:00,43.7,5.3,30.02,SE,141,0.0,0.0,20,0.00,,FEW120,0.00,VWS V14.01,2013-03-10 04:34:00,
2013-03-09 23:39:00,43.5,5.1,30.02,SE,141,0.0,0.0,20,0.00,,FEW120,0.00,VWS V14.01,2013-03-10 04:39:00,
2013-03-09 23:44:00,43.3,5.0,30.02,SE,141,0.0,0.0,20,0.00,,FEW120,0.00,VWS V14.01,2013-03-10 04:44:00,
2013-03-09 23:49:00,43.5,5.1,30.02,SE,141,0.0,0.0,20,0.00,,FEW120,0.00,VWS V14.01,2013-03-10 04:49:00,
2013-03-09 23:54:00,43.7,5.3,30.02,SE,141,0.0,0.0,20,0.00,,FEW120,0.00,VWS V14.01,2013-03-10 04:54:00,
2013-03-09 23:59:00,43.7,5.3,30.02,SE,141,0.0,0.0,20,0.00,,FEW120,0.00,VWS V14.01,2013-03-10 04:59:00,